NUSANTARA SATU

Last updated on Wed Oct 29 2025 00:02:50 GMT+0000 (Coordinated Universal Time)

1 44048U 19009A 25301.35044719 -.00000224 00000+0 00000+0 0 9990 2 44048 0.0344 129.9449 0003803 33.5562 145.6390 1.00270231 24447
UTC large
Height (km)
Speed (km/s)
/
Latitude / Longitude
Inclination (degrees)
Orbital Period (minutes)
Azimuth
Elevation
Range (km)
Doppler Factor

Next 0 passes for location: London (51.5072 / 0.1276)

Sorry there are no passes over London.